Temperature
15 15 16 16 19 20 20 20 20 20 20 18 17 19 20 20 20 18 13 13 14 14 14 14 14 14 14 14 14 14 14 14 15 14 14 14 14 14 14 14 14 14 14 14 14 14 14 14 14
15 15 15 17 19 20 20 20 19 19 18 16 16 17 18 17 14 13 13 13 13 13 13 13 14 14 14 14 14 14 14 14 14 14 14 14 14 14 14 14 14 14 14 14 14 14 14 14 14
15 15 16 18 19 20 20 19 19 18 16 16 16 16 16 15 13 12 12 13 13 13 13 13 13 13 13 14 14 14 14 14 14 14 14 14 14 14 14 14 14 14 14 14 14 14 14 14 14
14 15 16 18 18 18 19 19 18 17 16 15 16 16 14 12 12 12 12 13 12 13 13 13 13 13 13 13 14 14 14 13 13 14 14 14 14 14 14 14 14 14 14 14 14 14 14 14 14
14 16 17 17 18 18 18 17 16 18 17 16 16 16 14 12 12 12 12 12 12 12 12 12 13 13 13 13 13 13 13 13 13 13 13 14 14 13 13 13 13 13 13 13 13 14 14 14 14
14 16 17 17 18 17 17 16 16 17 17 15 15 16 13 11 12 12 12 12 12 12 12 12 12 13 13 13 13 13 13 13 13 13 13 13 13 13 13 13 13 13 13 13 13 13 14 14 13
15 16 17 17 17 17 16 15 16 17 16 15 14 15 13 11 11 11 11 12 12 12 12 12 12 12 12 13 13 13 13 13 13 13 13 13 13 13 13 13 13 13 13 13 13 13 13 13 13
14 16 16 16 16 16 15 14 14 15 15 12 13 15 13 11 11 11 11 11 11 12 12 12 12 12 12 12 12 13 13 13 13 13 13 13 13 13 13 13 13 13 13 13 13 13 13 13 13
13 15 15 16 16 16 14 14 13 12 12 12 11 11 11 11 11 11 11 11 11 11 11 11 11 12 12 12 12 12 12 12 12 12 12 12 12 12 12 13 13 12 12 12 13 13 13 13 13
13 15 15 15 15 15 13 13 13 13 13 12 11 10 10 10 10 10 10 10 10 11 11 11 11 11 11 12 12 12 12 12 12 12 12 12 12 12 12 12 12 12 12 12 12 12 12 12 12
13 14 14 13 12 13 13 12 12 13 14 13 12 10 10 10 10 10 10 10 10 10 11 11 11 11 11 11 11 11 11 11 11 11 11 11 12 12 12 12 12 12 12 12 12 12 12 12 12
12 12 12 12 11 11 12 12 12 11 12 10 10 10 10 10 10 10 10 10 10 10 10 10 10 10 11 11 11 11 11 11 11 11 11 11 11 11 11 11 11 11 11 11 11 11 11 11 11
12 12 11 10 10 10 10 11 11 10 9 9 9 9 10 10 10 9 9 9 9 10 10 10 10 10 10 10 10 10 11 11 11 11 11 11 11 11 11 11 11 11 11 11 11 11 11 11 11
12 11 11 10 10 10 11 11 10 10 9 9 9 9 9 9 9 9 9 9 9 9 9 9 10 10 10 10 10 10 10 10 10 10 10 10 10 10 10 10 10 10 10 10 10 10 10 10 10
10 11 11 11 11 10 11 11 11 9 9 9 9 8 8 8 8 8 9 9 9 9 9 9 9 9 9 9 10 10 10 10 10 10 10 10 10 10 9 10 10 10 10 10 10 10 10 10 10
11 12 12 11 11 10 11 12 11 9 9 9 8 8 8 8 7 8 8 8 8 8 8 8 9 9 9 9 9 9 9 9 9 9 9 9 9 9 9 9 9 9 9 9 9 9 9 9 9
11 11 12 11 10 10 11 12 11 8 8 9 8 8 7 7 7 7 7 7 8 8 8 8 8 8 8 8 8 8 8 8 8 8 8 8 8 8 8 8 8 8 8 8 8 8 8 8 8
11 11 11 11 10 10 10 11 10 9 8 9 8 8 7 7 7 7 7 7 7 7 7 7 8 8 8 8 8 8 8 8 8 8 8 8 8 8 8 8 8 8 8 8 8 8 8 8 8
10 10 10 10 9 9 10 10 10 9 8 8 8 8 7 6 6 6 6 6 7 7 7 7 7 7 7 7 7 7 7 7 7 7 7 7 7 7 7 7 7 7 7 7 7 7 7 7 7
9 9 9 9 8 9 9 10 10 9 9 8 8 7 7 6 5 5 6 6 6 6 7 7 7 7 7 7 7 7 7 7 7 7 7 7 7 7 6 6 6 6 6 6 6 7 6 6 6
8 9 8 8 8 8 8 10 10 9 8 7 7 6 6 6 5 5 5 5 5 6 6 6 6 6 6 6 6 6 6 6 6 6 6 6 6 6 6 6 6 6 6 6 6 6 6 6 5
8 7 7 7 8 9 8 10 11 9 9 8 7 6 6 5 5 4 5 5 5 5 6 6 6 6 6 6 6 6 5 5 6 5 5 5 5 5 5 5 5 5 5 5 5 5 5 5 5
7 6 6 7 7 7 8 8 11 9 8 8 8 6 5 4 4 4 4 4 5 5 5 5 5 5 5 5 5 5 5 5 5 5 5 5 5 5 5 5 5 5 5 5 5 5 5 5 4
6 6 6 6 7 7 8 8 10 9 9 8 7 6 5 4 3 3 4 4 4 4 5 5 5 5 5 5 4 4 4 4 4 4 4 4 4 4 4 4 4 4 4 4 4 4 4 4 4
6 7 7 7 7 8 7 7 9 8 7 7 6 5 4 3 3 3 3 3 4 4 4 4 4 4 4 4 4 4 4 4 4 4 4 4 4 4 4 4 3 3 3 3 4 4 4 3 3
6 6 7 8 9 9 6 7 9 7 5 5 4 4 3 3 3 3 3 3 3 3 4 4 4 4 4 3 3 3 3 3 3 3 3 3 3 3 3 3 3 3 3 3 3 3 3 3 3
6 6 6 6 5 6 8 7 7 6 6 5 4 3 3 3 2 2 2 3 3 3 3 3 3 3 3 3 3 3 2 2 2 2 2 2 2 2 2 2 2 2 2 2 2 2 2 2 2
5 5 5 6 6 8 8 8 8 7 6 6 5 4 3 2 2 2 2 2 2 2 2 2 2 2 2 2 2 2 2 2 2 2 2 2 2 2 2 1 1 1 1 2 1 1 2 2 2
4 4 4 5 5 7 8 9 7 6 6 5 5 3 3 2 2 2 2 2 2 1 1 1 1 1 1 1 1 1 1 1 1 1 1 1 1 1 1 1 1 1 1 1 1 1 1 1 1
4 4 4 5 5 5 6 8 6 5 4 4 3 3 2 2 2 1 1 1 1 1 1 1 1 1 1 1 1 1 1 1 1 1 1 1 1 0 0 0 0 -0 0 0 0 0 0 0 1
Wind_Speed
3 2 1 2 3 5 8 5 3 3 3 1 1 1 2 1 1 2 3 2 3 4 6 7 7 7 8 9 9 9 9 9 9 9 9 8 8 8 8 8 8 8 7 7 7 7 7 8 8
1 1 1 2 5 8 7 6 6 3 2 2 2 1 1 2 3 4 3 2 3 5 6 7 8 8 8 8 9 9 9 9 9 8 8 8 8 8 8 7 7 7 7 7 7 6 6 7 7
0 0 2 3 6 9 6 3 3 2 2 2 2 1 1 2 3 2 2 2 4 6 7 8 9 9 9 9 9 9 9 9 9 8 8 8 8 7 7 7 6 6 6 6 7 6 6 6 7
2 2 2 5 9 7 4 2 2 3 2 1 2 3 2 3 2 2 3 4 6 7 7 9 9 10 10 10 9 9 9 8 8 8 7 7 7 7 6 6 6 6 6 6 6 6 6 6 6
1 3 5 7 10 6 3 2 2 3 2 2 2 2 2 3 3 3 4 5 6 6 7 9 10 10 10 10 10 10 9 9 8 8 8 7 6 6 6 6 5 6 5 5 5 5 5 5 5
4 4 7 10 10 5 4 3 3 3 2 2 2 2 2 3 3 4 5 5 6 6 7 8 10 10 10 10 10 9 9 9 7 7 7 7 7 6 6 6 5 6 6 5 5 5 5 4 4
5 5 7 9 8 6 3 2 3 3 3 1 1 2 3 3 3 4 5 5 6 6 7 7 7 8 9 10 9 9 9 9 8 7 7 7 7 7 6 5 5 5 5 5 5 4 4 4 4
3 4 6 7 8 6 2 1 0 1 1 1 1 2 2 3 4 5 5 6 6 5 5 6 6 6 7 7 8 8 8 8 8 8 7 6 6 6 6 5 4 4 3 3 3 3 3 3 3
3 5 8 8 7 4 2 2 1 0 1 1 1 2 2 6 6 6 5 5 5 5 4 4 5 5 5 6 7 7 7 7 6 6 6 4 3 3 3 4 4 3 3 2 2 2 2 2 2
5 7 8 3 3 3 2 1 1 2 2 2 2 2 4 6 6 6 5 5 4 4 3 3 4 4 4 4 4 4 4 4 4 4 4 3 2 3 3 3 3 3 2 1 1 1 1 1 1
4 6 4 3 2 2 2 1 2 3 3 3 3 3 4 5 5 5 5 4 3 3 3 2 2 3 3 3 3 3 3 3 3 4 3 3 2 2 2 1 1 1 0 0 0 1 1 1 1
4 3 2 2 1 2 2 2 2 3 3 1 1 3 4 5 5 5 4 4 3 3 2 2 2 2 3 3 3 2 2 2 2 3 3 2 2 2 2 1 2 1 1 1 1 1 1 2 2
6 4 2 1 1 1 2 3 3 4 2 1 2 3 4 5 5 4 3 3 3 2 2 1 2 2 2 2 2 2 2 2 2 2 2 2 2 1 1 2 2 2 2 2 2 2 2 2 2
4 3 2 2 2 2 3 3 3 4 2 2 2 3 4 4 4 4 4 4 3 2 2 1 1 1 2 2 2 1 1 1 1 1 2 2 2 2 2 2 2 2 2 2 3 3 3 3 3
3 3 3 3 3 3 3 5 6 4 3 3 3 3 3 3 3 4 4 4 3 3 2 2 2 2 1 1 2 2 1 1 1 1 2 2 2 2 2 2 2 2 3 3 3 3 3 3 3
3 5 5 3 2 3 6 9 4 2 4 4 3 3 3 3 3 3 3 3 3 3 2 2 2 2 1 1 1 1 1 1 1 1 1 2 2 3 2 2 2 3 3 2 2 3 3 3 4
4 6 7 4 2 2 6 7 3 2 4 5 4 4 3 3 2 2 2 3 3 3 3 2 2 2 1 1 1 1 1 1 1 1 2 2 2 3 2 2 3 3 2 2 2 3 3 3 4
6 6 6 6 2 4 7 9 6 4 6 6 5 4 4 4 3 2 2 2 2 2 2 2 2 1 1 1 1 1 1 0 1 1 2 2 2 3 3 2 3 3 2 2 2 3 3 3 4
4 6 7 5 3 5 9 11 9 7 7 7 6 5 5 4 3 3 3 3 3 2 2 2 1 1 1 1 1 1 1 1 1 1 2 2 2 3 3 3 3 3 3 3 3 3 3 3 3
5 6 6 4 3 5 8 12 10 8 8 8 7 7 6 4 3 3 3 3 3 3 2 2 2 2 2 1 1 1 1 2 2 2 2 3 3 3 3 3 3 3 3 3 3 3 3 3 2
5 6 5 4 4 4 7 9 8 6 6 6 6 6 5 5 4 4 3 3 3 3 3 2 2 2 2 2 1 1 1 1 2 2 2 3 4 4 3 4 4 4 4 3 4 4 4 4 3
5 3 4 4 4 3 3 6 6 6 6 5 5 4 4 4 4 4 4 3 3 2 2 2 3 3 3 3 3 3 3 3 3 3 3 4 4 4 4 4 5 4 4 4 5 5 5 5 5
1 0 2 3 4 5 5 6 5 4 6 5 4 3 3 3 3 3 3 3 3 2 2 2 3 3 3 4 4 4 4 4 3 3 4 4 4 4 5 5 5 5 5 5 5 5 6 5 6
2 2 1 2 3 5 5 7 6 4 5 4 2 2 2 2 2 2 2 2 1 1 1 2 2 3 3 4 4 5 5 5 4 4 4 4 4 4 5 5 5 5 5 6 6 6 6 6 7
3 3 2 3 4 5 2 6 6 2 3 3 3 2 2 1 2 2 1 2 2 2 2 2 2 3 3 4 5 5 5 6 6 5 5 5 5 4 5 5 5 5 6 6 6 6 6 7 7
5 4 3 4 4 3 3 6 3 1 1 2 2 2 1 1 1 1 1 2 2 2 2 2 3 3 3 4 4 5 5 5 5 6 5 6 5 5 6 6 6 6 6 6 6 6 7 6 7
4 4 1 1 2 4 5 4 4 3 2 2 2 1 1 1 1 2 2 2 2 2 3 3 3 3 4 4 4 5 5 5 5 6 6 5 5 5 6 6 7 7 7 7 7 6 7 6 6
1 3 3 3 3 5 5 5 3 3 3 2 1 1 2 2 2 3 2 2 2 2 3 3 3 4 4 4 4 4 5 5 5 5 6 6 6 6 6 7 7 7 7 7 6 6 6 6 6
4 4 3 3 3 4 4 3 0 3 3 2 2 3 3 3 4 3 3 2 2 3 3 3 3 4 4 4 4 5 4 4 5 5 6 6 6 6 6 6 6 6 6 6 6 6 6 6 6
4 5 6 4 4 4 4 4 1 2 1 3 4 4 4 4 4 3 3 2 2 3 3 3 4 4 4 4 5 5 5 4 5 5 6 6 6 6 6 6 6 6 6 6 7 7 7 7 7
Wind_Direction
338 332 271 228 217 225 231 214 205 173 162 102 83 198 215 215 272 79 78 87 104 129 129 128 119 115 114 111 106 101 97 95 92 91 89 89 94 94 90 89 91 89 87 88 87 88 87 87 88
338 320 213 219 229 227 222 211 203 190 122 117 116 144 146 85 44 70 95 75 110 116 117 114 106 109 109 108 105 101 98 95 92 90 87 88 95 93 92 91 91 89 87 86 86 89 90 91 92
132 292 204 205 226 234 223 186 185 143 124 166 138 74 33 74 72 78 65 103 115 109 107 102 100 102 102 102 102 99 95 94 91 87 84 84 90 92 90 89 91 91 89 86 84 86 91 96 100
193 171 198 224 225 234 245 161 139 156 147 151 165 131 103 49 38 56 96 117 114 105 103 99 97 96 96 95 93 92 90 88 87 83 81 80 81 84 86 84 86 88 89 90 88 88 88 96 102
201 193 205 223 232 231 235 251 203 206 189 164 185 160 117 73 54 90 113 119 114 105 99 97 93 93 90 88 87 85 85 82 80 78 77 77 80 81 81 82 84 82 84 86 88 91 89 90 97
176 200 217 226 226 226 227 237 221 222 206 179 187 170 118 86 89 104 112 111 107 106 97 93 89 88 87 86 83 81 79 75 74 73 72 72 73 78 78 81 82 81 79 81 81 82 83 86 89
199 200 225 229 228 227 224 225 224 227 209 200 221 182 140 119 95 115 116 107 102 101 99 92 94 90 86 81 79 77 75 73 69 67 67 69 66 66 69 73 78 79 80 81 83 83 77 77 74
214 201 218 223 221 223 194 188 187 248 217 39 260 205 160 142 129 124 115 106 102 96 94 92 89 88 88 86 81 80 76 71 67 63 59 66 68 66 64 65 70 73 74 78 84 86 85 84 76
201 214 223 220 216 203 163 174 107 69 142 116 38 7 66 132 138 133 125 115 109 99 90 85 87 83 82 85 84 84 80 72 70 68 60 58 65 68 67 54 54 63 69 69 78 82 83 91 99
200 221 227 222 213 186 174 208 211 188 187 192 153 92 111 137 151 154 152 144 129 115 99 79 82 83 81 80 83 79 78 73 61 55 50 42 41 43 44 60 55 48 55 82 92 103 148 213 176
200 224 216 210 213 193 202 238 249 226 234 235 213 167 144 151 161 168 167 159 149 128 100 84 85 87 84 81 74 66 65 62 55 45 36 31 30 32 29 23 43 23 339 272 199 201 229 246 249
199 214 220 220 225 226 229 233 246 257 267 312 213 175 165 167 176 181 176 168 156 135 112 88 80 84 81 83 80 70 61 55 49 39 25 19 19 8 6 353 348 320 301 293 273 264 258 262 261
211 214 217 228 231 247 238 242 257 256 264 254 184 185 192 194 191 190 185 178 169 154 130 107 84 81 78 84 75 69 59 54 51 37 19 6 358 349 342 336 331 324 299 269 273 267 261 262 264
192 186 210 242 238 236 233 254 243 246 237 202 185 196 201 205 199 190 186 191 188 181 166 136 121 91 89 86 83 72 63 53 49 38 12 355 344 338 325 315 309 312 309 291 266 264 262 260 259
169 189 215 236 241 230 237 249 234 233 231 227 213 206 202 200 195 197 196 194 191 189 169 148 144 119 110 92 84 76 62 48 43 22 358 347 337 323 318 305 296 301 296 289 279 265 261 258 258
184 207 222 209 227 230 232 246 223 215 223 226 222 216 207 200 202 206 202 196 188 179 159 143 137 139 130 101 92 83 66 51 40 21 5 354 342 326 312 303 292 295 287 280 270 266 259 257 260
203 219 229 228 217 241 233 252 238 227 222 224 223 219 216 210 212 210 198 189 185 180 164 150 149 161 161 134 113 99 87 50 24 16 4 347 330 320 313 306 309 298 283 274 270 263 262 262 265
213 224 232 235 247 261 250 256 255 244 232 235 232 226 222 222 224 210 193 189 186 178 163 155 151 153 167 159 160 145 124 58 10 357 348 334 323 316 311 304 304 304 280 273 270 273 268 263 274
221 233 246 259 294 271 259 265 261 250 238 239 238 233 230 232 226 201 192 185 181 174 170 168 167 163 164 183 213 222 246 268 299 317 313 314 316 316 312 307 300 296 282 277 270 267 269 270 276
217 237 254 270 296 279 274 272 265 247 242 241 241 239 237 234 217 196 191 192 193 189 189 196 198 203 203 218 234 248 273 267 281 293 295 300 302 301 304 300 291 288 283 276 271 265 265 269 266
227 238 251 267 296 264 283 266 239 233 236 238 239 240 239 235 227 206 198 199 202 208 217 224 224 224 226 227 223 225 245 259 267 280 283 297 297 291 293 292 289 283 276 273 266 258 254 255 255
236 244 244 255 261 262 267 271 239 226 232 230 230 233 239 234 225 210 206 207 214 225 238 242 240 235 229 221 222 227 242 258 273 280 283 289 286 283 284 285 281 278 272 266 263 253 251 248 248
213 154 238 252 254 265 237 251 254 218 232 234 231 235 234 231 222 212 213 218 223 232 245 250 250 248 237 228 229 236 248 260 272 276 279 287 286 282 284 283 280 275 272 267 262 258 248 244 246
156 165 206 227 237 248 233 234 258 223 227 228 234 246 239 230 219 214 207 215 228 243 252 254 249 258 250 238 236 240 251 258 265 272 278 282 280 277 281 283 276 273 272 269 263 258 252 245 246
189 206 230 224 227 241 190 236 255 256 240 245 257 272 266 230 210 207 211 233 256 266 272 268 258 261 262 252 248 248 251 254 258 267 270 275 275 277 276 278 272 271 273 273 267 261 258 251 248
197 213 229 250 255 268 218 239 256 272 261 267 269 270 256 218 220 234 254 263 268 275 277 277 271 264 265 263 260 256 255 257 261 263 267 267 270 273 276 274 273 274 273 271 266 262 259 256 248
182 201 250 235 282 266 247 258 269 218 247 263 259 252 243 268 275 272 278 284 283 280 281 281 280 276 272 271 272 265 261 260 262 265 266 268 270 273 271 271 271 271 270 267 264 260 258 256 254
263 164 176 205 239 258 261 258 263 224 228 239 252 261 276 288 291 291 289 296 298 294 294 293 290 289 295 289 279 273 271 269 267 266 267 269 272 273 271 270 269 269 267 263 259 259 257 255 256
170 178 201 206 247 256 266 258 290 235 224 246 284 290 284 286 288 289 294 301 302 297 295 300 301 301 302 302 300 289 281 278 273 269 269 271 272 270 266 265 265 265 263 261 257 256 258 258 261
235 214 198 218 224 234 262 270 75 240 252 282 298 298 291 287 289 286 284 290 298 301 300 301 302 304 308 307 303 302 291 286 280 277 275 274 272 271 268 265 264 265 263 259 255 256 257 258 261
Height
1509 1510 1511 1514 1513 1509 1505 1504 1505 1506 1508 1511 1512 1511 1509 1510 1511 1518 1520 1517 1519 1521 1523 1524 1525 1526 1527 1528 1529 1529 1530 1530 1530 1531 1531 1531 1531 1531 1531 1531 1531 1531 1531 1531 1531 1530 1530 1530 1530
1509 1510 1513 1514 1509 1506 1504 1503 1505 1506 1510 1512 1513 1513 1512 1514 1516 1517 1517 1518 1519 1521 1523 1524 1525 1526 1527 1528 1529 1529 1530 1530 1531 1531 1531 1531 1532 1532 1532 1532 1532 1532 1531 1531 1531 1531 1531 1530 1530
1509 1510 1514 1511 1507 1503 1501 1503 1505 1509 1511 1512 1513 1514 1514 1516 1517 1517 1517 1518 1520 1522 1523 1524 1525 1526 1527 1528 1529 1530 1530 1531 1531 1531 1531 1532 1532 1532 1532 1532 1532 1532 1532 1531 1531 1531 1531 1531 1530
1509 1512 1513 1510 1506 1504 1503 1505 1508 1510 1512 1513 1513 1514 1516 1517 1517 1517 1517 1519 1521 1522 1524 1524 1526 1527 1528 1528 1529 1530 1530 1531 1531 1531 1531 1531 1531 1532 1532 1532 1532 1532 1531 1531 1531 1531 1531 1531 1531
1509 1511 1509 1508 1505 1505 1507 1509 1510 1509 1510 1512 1513 1513 1516 1516 1516 1517 1518 1519 1521 1523 1524 1525 1526 1526 1527 1528 1529 1529 1530 1531 1531 1531 1531 1531 1531 1531 1531 1531 1531 1531 1531 1531 1531 1531 1531 1531 1531
1510 1509 1506 1504 1503 1505 1508 1510 1510 1509 1510 1512 1513 1513 1516 1516 1516 1517 1518 1520 1521 1523 1524 1525 1526 1526 1527 1528 1529 1529 1530 1530 1531 1531 1531 1531 1531 1531 1531 1531 1531 1531 1531 1530 1530 1530 1530 1530 1530
1509 1506 1503 1502 1503 1504 1508 1510 1510 1509 1510 1513 1514 1513 1515 1516 1516 1517 1518 1520 1521 1522 1524 1525 1526 1527 1527 1528 1528 1529 1529 1530 1530 1530 1530 1530 1530 1530 1530 1530 1530 1530 1530 1530 1530 1530 1530 1530 1529
1507 1506 1504 1503 1503 1504 1509 1510 1511 1511 1511 1513 1514 1513 1515 1516 1516 1517 1518 1520 1521 1522 1523 1524 1525 1526 1527 1527 1528 1528 1529 1529 1529 1529 1530 1529 1529 1529 1529 1529 1529 1529 1529 1529 1529 1529 1529 1529 1529
1507 1507 1502 1502 1503 1504 1508 1509 1511 1512 1512 1513 1513 1514 1515 1514 1515 1517 1518 1519 1520 1521 1522 1524 1525 1525 1526 1527 1527 1527 1528 1528 1528 1528 1528 1528 1528 1528 1528 1528 1528 1528 1528 1527 1527 1528 1528 1528 1527
1506 1503 1501 1504 1505 1505 1508 1509 1510 1511 1511 1512 1513 1513 1513 1514 1515 1516 1517 1518 1519 1520 1521 1523 1524 1524 1525 1525 1526 1526 1526 1527 1527 1527 1526 1526 1526 1526 1526 1526 1526 1526 1526 1526 1526 1526 1526 1526 1526
1505 1503 1504 1506 1507 1508 1508 1509 1510 1510 1509 1511 1512 1512 1513 1513 1514 1516 1517 1518 1519 1520 1520 1521 1522 1523 1524 1524 1524 1525 1525 1525 1525 1525 1525 1525 1525 1525 1525 1525 1525 1524 1524 1524 1524 1524 1524 1524 1524
1505 1506 1506 1507 1508 1509 1509 1509 1510 1510 1510 1511 1511 1511 1512 1512 1513 1514 1515 1516 1517 1518 1519 1520 1521 1522 1522 1523 1523 1523 1523 1524 1524 1524 1524 1523 1523 1523 1523 1523 1523 1522 1522 1522 1522 1522 1522 1522 1522
1504 1506 1507 1508 1508 1509 1509 1509 1509 1509 1510 1510 1510 1511 1511 1511 1512 1513 1514 1515 1516 1517 1517 1518 1519 1520 1521 1521 1522 1522 1522 1522 1522 1522 1522 1522 1521 1521 1521 1521 1520 1520 1520 1520 1520 1520 1519 1519 1519
1504 1506 1507 1507 1508 1508 1508 1508 1508 1508 1509 1509 1509 1509 1510 1510 1511 1512 1512 1513 1513 1514 1516 1517 1518 1518 1519 1520 1520 1520 1520 1520 1520 1520 1520 1519 1519 1519 1519 1518 1518 1518 1517 1517 1517 1517 1517 1517 1516
1506 1505 1505 1506 1507 1507 1508 1505 1506 1507 1508 1508 1508 1508 1508 1508 1509 1509 1510 1510 1511 1512 1514 1515 1516 1517 1517 1517 1518 1518 1518 1518 1518 1517 1517 1517 1517 1516 1516 1516 1515 1515 1515 1514 1514 1514 1514 1514 1513
1504 1503 1501 1504 1505 1506 1507 1500 1503 1505 1506 1506 1506 1506 1507 1507 1507 1507 1508 1508 1509 1510 1512 1513 1514 1514 1515 1515 1515 1516 1516 1516 1515 1515 1515 1515 1514 1514 1514 1513 1513 1512 1512 1511 1511 1511 1511 1510 1510
1501 1498 1498 1501 1504 1504 1503 1498 1501 1504 1504 1504 1505 1505 1505 1505 1505 1505 1506 1506 1507 1508 1509 1510 1511 1512 1513 1513 1513 1513 1513 1513 1513 1513 1512 1512 1512 1511 1511 1510 1510 1509 1509 1508 1508 1508 1507 1507 1506
1497 1496 1498 1498 1502 1503 1500 1497 1500 1502 1502 1502 1502 1503 1503 1503 1503 1503 1504 1504 1505 1506 1507 1508 1509 1510 1510 1510 1511 1511 1511 1511 1510 1510 1510 1509 1509 1508 1508 1507 1507 1506 1506 1505 1505 1504 1504 1503 1503
1499 1499 1499 1500 1503 1503 1498 1496 1496 1498 1500 1500 1500 1500 1500 1500 1501 1501 1501 1502 1503 1504 1505 1506 1506 1507 1507 1507 1508 1508 1508 1508 1508 1507 1507 1506 1506 1505 1505 1504 1504 1503 1503 1502 1502 1501 1501 1500 1500
1502 1501 1500 1502 1504 1502 1498 1494 1493 1495 1496 1496 1497 1497 1497 1498 1498 1498 1499 1500 1500 1501 1502 1503 1504 1504 1504 1505 1505 1505 1505 1505 1505 1504 1504 1503 1503 1502 1502 1501 1501 1500 1499 1499 1498 1498 1497 1497 1497
1502 1501 1501 1502 1503 1502 1500 1489 1488 1491 1493 1494 1494 1494 1495 1495 1495 1496 1496 1497 1498 1499 1499 1500 1501 1501 1502 1502 1502 1502 1502 1501 1501 1501 1500 1500 1499 1499 1498 1498 1497 1497 1496 1495 1495 1495 1494 1494 1494
1501 1504 1504 1504 1501 1496 1499 1488 1481 1486 1488 1490 1491 1492 1492 1492 1493 1493 1494 1494 1495 1496 1497 1497 1498 1498 1499 1499 1498 1498 1498 1498 1497 1497 1496 1496 1495 1495 1494 1494 1493 1493 1492 1492 1491 1491 1491 1491 1490
1503 1506 1505 1504 1503 1501 1497 1496 1479 1484 1484 1485 1488 1489 1489 1490 1490 1491 1491 1492 1493 1493 1493 1494 1494 1495 1495 1495 1495 1495 1494 1494 1494 1493 1493 1492 1491 1491 1490 1489 1489 1488 1488 1487 1487 1487 1486 1486 1486
1506 1507 1506 1504 1501 1499 1492 1491 1476 1478 1480 1483 1486 1487 1487 1488 1488 1489 1489 1490 1490 1490 1491 1491 1491 1491 1491 1491 1491 1491 1491 1490 1490 1489 1488 1488 1487 1486 1485 1485 1484 1484 1483 1483 1482 1482 1482 1481 1481
1505 1502 1498 1496 1494 1486 1494 1491 1479 1480 1483 1484 1485 1485 1486 1486 1486 1487 1487 1487 1487 1488 1488 1487 1487 1487 1488 1488 1487 1487 1487 1486 1485 1485 1484 1483 1482 1481 1481 1480 1480 1479 1478 1478 1477 1477 1477 1476 1476
1503 1500 1496 1491 1484 1480 1494 1486 1478 1483 1484 1484 1485 1485 1485 1485 1485 1485 1485 1485 1485 1485 1485 1484 1484 1484 1484 1484 1483 1483 1483 1482 1481 1480 1479 1478 1478 1477 1476 1475 1475 1474 1473 1473 1472 1471 1471 1471 1471
1501 1500 1502 1501 1504 1494 1480 1481 1480 1482 1482 1483 1484 1484 1484 1484 1484 1484 1484 1483 1483 1482 1482 1481 1481 1480 1480 1480 1479 1479 1478 1478 1477 1476 1475 1474 1473 1472 1471 1470 1469 1469 1468 1467 1467 1466 1466 1466 1466
1503 1502 1503 1499 1493 1481 1476 1477 1473 1477 1478 1481 1482 1482 1482 1483 1483 1482 1481 1481 1480 1480 1479 1479 1478 1477 1476 1476 1475 1475 1474 1474 1473 1472 1470 1469 1468 1467 1466 1465 1464 1463 1463 1462 1462 1461 1461 1461 1460
1504 1505 1501 1497 1495 1485 1476 1472 1475 1476 1478 1480 1481 1481 1481 1481 1481 1480 1479 1479 1478 1477 1477 1476 1475 1474 1473 1472 1471 1471 1470 1469 1468 1467 1466 1465 1463 1462 1461 1460 1459 1458 1457 1457 1456 1456 1455 1455 1455
1502 1499 1499 1494 1495 1494 1484 1477 1477 1479 1480 1481 1480 1480 1480 1479 1479 1478 1477 1476 1476 1475 1474 1473 1472 1471 1470 1469 1468 1467 1466 1465 1464 1463 1461 1460 1459 1457 1456 1455 1454 1453 1452 1452 1451 1451 1450 1450 1450